Location: The Rolnick Observatory
(41.1711°N, 73.3275°W)
Time: 05:59:17
(UTC-04:00)

N. Korean satellite - Pass Details

Date: 17 February 2019
Orbit: 456 x 510 km, 97.2° (Epoch: 25 March)

Event Time Altitude Azimuth Distance (km) Brightness Sun altitude
Rises 05:33:00 0° 22° (NNE) 2,514 10.4 -14.3°
Reaches altitude 10° 05:35:15 10° 34° (NE) 1,624 9.6 -13.9°
Maximum altitude 05:38:20 29° 97° (E) 869 8.7 -13.3°
Drops below altitude 10° 05:41:22 10° 159° (SSE) 1,595 9.5 -12.7°
Sets 05:43:33 0° 171° (S) 2,460 10.3 -12.3°
